1578178844,2020-01-05 00:00,399.00,-16
1578178904,2020-01-05 00:01,398.00,-15
1578178964,2020-01-05 00:02,397.00,-15
1578179024,2020-01-05 00:03,398.00,-15
1578179084,2020-01-05 00:04,399.00,-16
1578179145,2020-01-05 00:05,397.00,-15
1578179205,2020-01-05 00:06,397.00,-14
1578179265,2020-01-05 00:07,400.00,-16
1578179325,2020-01-05 00:08,399.00,-14
1578179385,2020-01-05 00:09,399.00,-16
1578179445,2020-01-05 00:10,399.00,-16
1578179505,2020-01-05 00:11,398.00,-15
1578179565,2020-01-05 00:12,399.00,-14
1578179625,2020-01-05 00:13,398.00,-17
1578179686,2020-01-05 00:14,398.00,-16
1578179746,2020-01-05 00:15,399.00,-15
1578179806,2020-01-05 00:16,397.00,-15
1578179866,2020-01-05 00:17,399.00,-14
1578179927,2020-01-05 00:18,398.00,-15
1578179987,2020-01-05 00:19,396.00,-15
1578180047,2020-01-05 00:20,397.00,-14
1578180107,2020-01-05 00:21,396.00,-16
1578180168,2020-01-05 00:22,398.00,-16
1578180228,2020-01-05 00:23,398.00,-15
1578180288,2020-01-05 00:24,398.00,-14
1578180349,2020-01-05 00:25,400.00,-15
1578180409,2020-01-05 00:26,399.00,-15
1578180469,2020-01-05 00:27,396.00,-14
1578180529,2020-01-05 00:28,399.00,-14
1578180590,2020-01-05 00:29,399.00,-16
1578180650,2020-01-05 00:30,397.00,-16
1578180710,2020-01-05 00:31,399.00,-15
1578180770,2020-01-05 00:32,397.00,-17
1578180831,2020-01-05 00:33,399.00,-15
1578180891,2020-01-05 00:34,397.00,-15
1578180951,2020-01-05 00:35,397.00,-15
1578181012,2020-01-05 00:36,398.00,-16
1578181072,2020-01-05 00:37,397.00,-14
1578181132,2020-01-05 00:38,398.00,-15
1578181193,2020-01-05 00:39,398.00,-16
1578181253,2020-01-05 00:40,398.00,-15
1578181313,2020-01-05 00:41,399.00,-17
1578181373,2020-01-05 00:42,396.00,-15
1578181434,2020-01-05 00:43,397.00,-16
1578181494,2020-01-05 00:44,397.00,-14
1578181554,2020-01-05 00:45,398.00,-17
1578181615,2020-01-05 00:46,395.00,-15
1578181675,2020-01-05 00:47,397.00,-16
1578181735,2020-01-05 00:48,398.00,-16
1578181795,2020-01-05 00:49,397.00,-15
1578181856,2020-01-05 00:50,398.00,-15
1578181916,2020-01-05 00:51,399.00,-15
1578181977,2020-01-05 00:52,399.00,-17
1578182037,2020-01-05 00:53,396.00,-15
1578182097,2020-01-05 00:54,399.00,-17
1578182157,2020-01-05 00:55,396.00,-15
1578182217,2020-01-05 00:56,396.00,-15
1578182278,2020-01-05 00:57,396.00,-15
1578182338,2020-01-05 00:58,397.00,-16
1578182398,2020-01-05 00:59,397.00,-17
1578182459,2020-01-05 01:00,397.00,-15
1578182519,2020-01-05 01:01,397.00,-14
1578182579,2020-01-05 01:02,397.00,-16
1578182640,2020-01-05 01:04,398.00,-17
1578182700,2020-01-05 01:05,398.00,-16
1578182760,2020-01-05 01:06,399.00,-17
1578182820,2020-01-05 01:07,396.00,-14
1578182881,2020-01-05 01:08,398.00,-15
1578182941,2020-01-05 01:09,398.00,-16
1578183002,2020-01-05 01:10,398.00,-15
1578183062,2020-01-05 01:11,397.00,-18
1578183122,2020-01-05 01:12,399.00,-15
1578183182,2020-01-05 01:13,398.00,-13
1578183242,2020-01-05 01:14,396.00,-15
1578183303,2020-01-05 01:15,397.00,-15
1578183363,2020-01-05 01:16,398.00,-15
1578183423,2020-01-05 01:17,397.00,-16
1578183484,2020-01-05 01:18,395.00,-14
1578183544,2020-01-05 01:19,396.00,-16
1578183604,2020-01-05 01:20,397.00,-16
1578183665,2020-01-05 01:21,397.00,-16
1578183725,2020-01-05 01:22,399.00,-16
1578183785,2020-01-05 01:23,398.00,-16
1578183845,2020-01-05 01:24,398.00,-14
1578183906,2020-01-05 01:25,398.00,-16
1578183966,2020-01-05 01:26,398.00,-14
1578184026,2020-01-05 01:27,397.00,-16
1578184087,2020-01-05 01:28,397.00,-15
1578184147,2020-01-05 01:29,398.00,-16
1578184207,2020-01-05 01:30,396.00,-15
1578184268,2020-01-05 01:31,396.00,-14
1578184328,2020-01-05 01:32,397.00,-15
1578184388,2020-01-05 01:33,396.00,-15
1578184449,2020-01-05 01:34,398.00,-14
1578184509,2020-01-05 01:35,398.00,-15
1578184569,2020-01-05 01:36,398.00,-16
1578184630,2020-01-05 01:37,398.00,-14
1578184690,2020-01-05 01:38,399.00,-16
1578184750,2020-01-05 01:39,398.00,-14
1578184811,2020-01-05 01:40,397.00,-16
1578184871,2020-01-05 01:41,395.00,-16
1578184931,2020-01-05 01:42,397.00,-17
1578184992,2020-01-05 01:43,397.00,-15
1578185052,2020-01-05 01:44,397.00,-14
1578185112,2020-01-05 01:45,397.00,-14
1578185173,2020-01-05 01:46,396.00,-15
1578185233,2020-01-05 01:47,396.00,-14
1578185293,2020-01-05 01:48,397.00,-15
1578185353,2020-01-05 01:49,396.00,-16
1578185414,2020-01-05 01:50,397.00,-16
1578185474,2020-01-05 01:51,396.00,-14
1578185534,2020-01-05 01:52,396.00,-16
1578185595,2020-01-05 01:53,398.00,-16
1578185655,2020-01-05 01:54,397.00,-16
1578185715,2020-01-05 01:55,397.00,-16
1578185775,2020-01-05 01:56,396.00,-15
1578185836,2020-01-05 01:57,395.00,-16
1578185896,2020-01-05 01:58,396.00,-16
1578185956,2020-01-05 01:59,396.00,-15
1578186017,2020-01-05 02:00,399.00,-17
1578186077,2020-01-05 02:01,396.00,-15
1578186378,2020-01-05 02:06,397.00,-15
1578186438,2020-01-05 02:07,398.00,-15
1578186499,2020-01-05 02:08,398.00,-15
1578186559,2020-01-05 02:09,394.00,-16
1578186619,2020-01-05 02:10,396.00,-14
1578186680,2020-01-05 02:11,396.00,-14
1578186740,2020-01-05 02:12,397.00,-15
1578186800,2020-01-05 02:13,396.00,-16
1578186860,2020-01-05 02:14,397.00,-17
1578186920,2020-01-05 02:15,397.00,-15
1578186981,2020-01-05 02:16,396.00,-16
1578187041,2020-01-05 02:17,396.00,-17
1578187101,2020-01-05 02:18,397.00,-17
1578187162,2020-01-05 02:19,397.00,-16
1578187222,2020-01-05 02:20,398.00,-16
1578187282,2020-01-05 02:21,395.00,-15
1578187343,2020-01-05 02:22,395.00,-15
1578187403,2020-01-05 02:23,395.00,-14
1578187463,2020-01-05 02:24,395.00,-16
1578187523,2020-01-05 02:25,398.00,-16
1578187584,2020-01-05 02:26,397.00,-14
1578187644,2020-01-05 02:27,396.00,-14
1578187704,2020-01-05 02:28,394.00,-15
1578187764,2020-01-05 02:29,396.00,-15
1578187824,2020-01-05 02:30,398.00,-15
1578187885,2020-01-05 02:31,396.00,-14
1578187945,2020-01-05 02:32,396.00,-14
1578188005,2020-01-05 02:33,396.00,-16
1578188065,2020-01-05 02:34,397.00,-15
1578188126,2020-01-05 02:35,396.00,-15
1578188186,2020-01-05 02:36,395.00,-14
1578188246,2020-01-05 02:37,397.00,-15
1578188306,2020-01-05 02:38,397.00,-17
1578188366,2020-01-05 02:39,395.00,-15
1578188427,2020-01-05 02:40,395.00,-16
1578188487,2020-01-05 02:41,395.00,-15
1578188547,2020-01-05 02:42,398.00,-16
1578188608,2020-01-05 02:43,397.00,-16
1578188668,2020-01-05 02:44,397.00,-17
1578188728,2020-01-05 02:45,397.00,-16
1578188788,2020-01-05 02:46,396.00,-16
1578188849,2020-01-05 02:47,395.00,-17
1578188909,2020-01-05 02:48,396.00,-15
1578188970,2020-01-05 02:49,396.00,-15
1578189030,2020-01-05 02:50,395.00,-15
1578189091,2020-01-05 02:51,395.00,-15
1578189151,2020-01-05 02:52,397.00,-16
1578189211,2020-01-05 02:53,397.00,-16
1578189272,2020-01-05 02:54,395.00,-16
1578189332,2020-01-05 02:55,396.00,-16
1578189392,2020-01-05 02:56,394.00,-16
1578189453,2020-01-05 02:57,395.00,-16
1578189513,2020-01-05 02:58,394.00,-15
1578189573,2020-01-05 02:59,394.00,-16
1578189633,2020-01-05 03:00,395.00,-16
1578189694,2020-01-05 03:01,395.00,-17
1578189754,2020-01-05 03:02,396.00,-16
1578189814,2020-01-05 03:03,394.00,-15
1578189875,2020-01-05 03:04,396.00,-16
1578189935,2020-01-05 03:05,395.00,-15
1578189995,2020-01-05 03:06,394.00,-15
1578190056,2020-01-05 03:07,394.00,-16
1578190116,2020-01-05 03:08,395.00,-16
1578190176,2020-01-05 03:09,392.00,-14
1578190236,2020-01-05 03:10,395.00,-14
1578190297,2020-01-05 03:11,393.00,-16
1578190357,2020-01-05 03:12,394.00,-16
1578190417,2020-01-05 03:13,395.00,-15
1578190478,2020-01-05 03:14,394.00,-16
1578190538,2020-01-05 03:15,396.00,-16
1578190598,2020-01-05 03:16,395.00,-14
1578190659,2020-01-05 03:17,394.00,-16
1578190719,2020-01-05 03:18,395.00,-16
1578190779,2020-01-05 03:19,394.00,-15
1578190839,2020-01-05 03:20,395.00,-15
1578190900,2020-01-05 03:21,394.00,-15
1578190960,2020-01-05 03:22,393.00,-16
1578191020,2020-01-05 03:23,393.00,-14
1578191080,2020-01-05 03:24,393.00,-17
1578191141,2020-01-05 03:25,394.00,-16
1578191201,2020-01-05 03:26,395.00,-14
1578191261,2020-01-05 03:27,394.00,-17
1578191321,2020-01-05 03:28,393.00,-15
1578191381,2020-01-05 03:29,392.00,-16
1578191441,2020-01-05 03:30,393.00,-15
1578191501,2020-01-05 03:31,395.00,-14
1578191561,2020-01-05 03:32,393.00,-16
1578191621,2020-01-05 03:33,394.00,-17
1578191682,2020-01-05 03:34,394.00,-15
1578191742,2020-01-05 03:35,393.00,-16
1578191802,2020-01-05 03:36,394.00,-16
1578191862,2020-01-05 03:37,393.00,-15
1578191922,2020-01-05 03:38,393.00,-15
1578191982,2020-01-05 03:39,393.00,-16
1578192042,2020-01-05 03:40,393.00,-16
1578192102,2020-01-05 03:41,392.00,-15
1578192162,2020-01-05 03:42,392.00,-16
1578192222,2020-01-05 03:43,393.00,-15
1578192282,2020-01-05 03:44,393.00,-17
1578192343,2020-01-05 03:45,394.00,-17
1578192403,2020-01-05 03:46,392.00,-15
1578192463,2020-01-05 03:47,394.00,-16
1578192523,2020-01-05 03:48,394.00,-15
1578192583,2020-01-05 03:49,393.00,-16
1578192643,2020-01-05 03:50,393.00,-14
1578192703,2020-01-05 03:51,393.00,-16
1578192763,2020-01-05 03:52,394.00,-16
1578192823,2020-01-05 03:53,391.00,-17
1578192884,2020-01-05 03:54,392.00,-15
1578192944,2020-01-05 03:55,393.00,-15
1578193004,2020-01-05 03:56,393.00,-16
1578193064,2020-01-05 03:57,392.00,-15
1578193124,2020-01-05 03:58,391.00,-15
1578193184,2020-01-05 03:59,393.00,-15
1578193244,2020-01-05 04:00,391.00,-15
1578193304,2020-01-05 04:01,392.00,-15
1578193364,2020-01-05 04:02,392.00,-15
1578193424,2020-01-05 04:03,392.00,-16
1578193484,2020-01-05 04:04,396.00,-16
1578193545,2020-01-05 04:05,393.00,-15
1578193605,2020-01-05 04:06,393.00,-16
1578193665,2020-01-05 04:07,392.00,-16
1578193725,2020-01-05 04:08,392.00,-16
1578193785,2020-01-05 04:09,393.00,-16
1578193845,2020-01-05 04:10,391.00,-16
1578193905,2020-01-05 04:11,393.00,-16
1578193965,2020-01-05 04:12,392.00,-15
1578194025,2020-01-05 04:13,393.00,-17
1578194085,2020-01-05 04:14,393.00,-16
1578194209,2020-01-05 04:16,392.00,-15
1578194269,2020-01-05 04:17,393.00,-17
1578194329,2020-01-05 04:18,392.00,-16
1578194389,2020-01-05 04:19,392.00,-14
1578194450,2020-01-05 04:20,391.00,-16
1578194510,2020-01-05 04:21,393.00,-16
1578194570,2020-01-05 04:22,392.00,-16
1578194631,2020-01-05 04:23,392.00,-16
1578194691,2020-01-05 04:24,392.00,-17
1578194751,2020-01-05 04:25,392.00,-14
1578194811,2020-01-05 04:26,392.00,-17
1578194872,2020-01-05 04:27,391.00,-17
1578194932,2020-01-05 04:28,391.00,-15
1578194992,2020-01-05 04:29,391.00,-17
1578195053,2020-01-05 04:30,391.00,-17
1578195113,2020-01-05 04:31,392.00,-15
1578195173,2020-01-05 04:32,392.00,-15
1578195233,2020-01-05 04:33,393.00,-16
1578195294,2020-01-05 04:34,390.00,-17
1578195354,2020-01-05 04:35,390.00,-16
1578195414,2020-01-05 04:36,390.00,-17
1578195474,2020-01-05 04:37,391.00,-15
1578195535,2020-01-05 04:38,393.00,-17
1578195595,2020-01-05 04:39,391.00,-15
1578195655,2020-01-05 04:40,390.00,-16
1578195716,2020-01-05 04:41,392.00,-14
1578195776,2020-01-05 04:42,392.00,-17
1578195836,2020-01-05 04:43,391.00,-17
1578195896,2020-01-05 04:44,390.00,-17
1578195957,2020-01-05 04:45,390.00,-15
1578196017,2020-01-05 04:46,391.00,-16
1578196077,2020-01-05 04:47,393.00,-16
1578196138,2020-01-05 04:48,391.00,-15
1578196198,2020-01-05 04:49,391.00,-17
1578196258,2020-01-05 04:50,390.00,-16
1578196318,2020-01-05 04:51,391.00,-17
1578196379,2020-01-05 04:52,391.00,-17
1578196439,2020-01-05 04:53,392.00,-16
1578196499,2020-01-05 04:54,389.00,-16
1578196560,2020-01-05 04:56,390.00,-14
1578196620,2020-01-05 04:57,390.00,-18
1578196680,2020-01-05 04:58,391.00,-17
1578196740,2020-01-05 04:59,388.00,-15
1578196801,2020-01-05 05:00,390.00,-16
1578196861,2020-01-05 05:01,389.00,-15
1578196921,2020-01-05 05:02,391.00,-18
1578196982,2020-01-05 05:03,392.00,-15
1578197042,2020-01-05 05:04,391.00,-17
1578197102,2020-01-05 05:05,390.00,-16
1578197162,2020-01-05 05:06,389.00,-17
1578197223,2020-01-05 05:07,389.00,-16
1578197283,2020-01-05 05:08,391.00,-16
1578197343,2020-01-05 05:09,391.00,-15
1578197404,2020-01-05 05:10,391.00,-17
1578197464,2020-01-05 05:11,390.00,-15
1578197524,2020-01-05 05:12,391.00,-16
1578197584,2020-01-05 05:13,390.00,-15
1578197645,2020-01-05 05:14,392.00,-16
1578197705,2020-01-05 05:15,392.00,-16
1578197765,2020-01-05 05:16,390.00,-16
1578197825,2020-01-05 05:17,391.00,-17
1578197886,2020-01-05 05:18,390.00,-15
1578197946,2020-01-05 05:19,393.00,-17
1578198006,2020-01-05 05:20,392.00,-17
1578198067,2020-01-05 05:21,391.00,-17
1578198127,2020-01-05 05:22,391.00,-17
1578198187,2020-01-05 05:23,391.00,-16
1578198247,2020-01-05 05:24,391.00,-17
1578198308,2020-01-05 05:25,390.00,-17
1578198368,2020-01-05 05:26,389.00,-16
1578198428,2020-01-05 05:27,390.00,-15
1578198488,2020-01-05 05:28,388.00,-16
1578198549,2020-01-05 05:29,390.00,-17
1578198609,2020-01-05 05:30,391.00,-16
1578198669,2020-01-05 05:31,390.00,-16
1578198729,2020-01-05 05:32,391.00,-15
1578198790,2020-01-05 05:33,391.00,-14
1578198850,2020-01-05 05:34,388.00,-16
1578198910,2020-01-05 05:35,391.00,-16
1578198971,2020-01-05 05:36,391.00,-16
1578199031,2020-01-05 05:37,389.00,-17
1578199091,2020-01-05 05:38,389.00,-15
1578199151,2020-01-05 05:39,388.00,-15
1578199212,2020-01-05 05:40,390.00,-16
1578199272,2020-01-05 05:41,391.00,-17
1578199332,2020-01-05 05:42,390.00,-15
1578199392,2020-01-05 05:43,391.00,-16
1578199453,2020-01-05 05:44,390.00,-16
1578199513,2020-01-05 05:45,390.00,-17
1578199573,2020-01-05 05:46,391.00,-14
1578199634,2020-01-05 05:47,390.00,-16
1578199694,2020-01-05 05:48,390.00,-16
1578199754,2020-01-05 05:49,390.00,-15
1578199814,2020-01-05 05:50,391.00,-16
1578199875,2020-01-05 05:51,389.00,-16
1578199935,2020-01-05 05:52,389.00,-17
1578199995,2020-01-05 05:53,390.00,-16
1578200055,2020-01-05 05:54,390.00,-16
1578200116,2020-01-05 05:55,392.00,-16
1578200176,2020-01-05 05:56,390.00,-16
1578200236,2020-01-05 05:57,392.00,-16
1578200296,2020-01-05 05:58,392.00,-16
1578200357,2020-01-05 05:59,392.00,-16
1578200417,2020-01-05 06:00,391.00,-17
1578200477,2020-01-05 06:01,392.00,-15
1578200538,2020-01-05 06:02,391.00,-16
1578200598,2020-01-05 06:03,390.00,-17
1578200658,2020-01-05 06:04,391.00,-16
1578200718,2020-01-05 06:05,391.00,-17
1578200779,2020-01-05 06:06,390.00,-15
1578200839,2020-01-05 06:07,393.00,-16
1578200899,2020-01-05 06:08,393.00,-16
1578200959,2020-01-05 06:09,390.00,-17
1578201020,2020-01-05 06:10,390.00,-16
1578201080,2020-01-05 06:11,391.00,-15
1578201140,2020-01-05 06:12,391.00,-16
1578201201,2020-01-05 06:13,391.00,-17
1578201261,2020-01-05 06:14,390.00,-15
1578201321,2020-01-05 06:15,390.00,-16
1578201381,2020-01-05 06:16,390.00,-16
1578201441,2020-01-05 06:17,391.00,-17
1578201502,2020-01-05 06:18,391.00,-16
1578201562,2020-01-05 06:19,392.00,-17
1578201622,2020-01-05 06:20,391.00,-16
1578201682,2020-01-05 06:21,391.00,-17
1578201742,2020-01-05 06:22,390.00,-16
1578201803,2020-01-05 06:23,393.00,-17
1578201863,2020-01-05 06:24,391.00,-15
1578201923,2020-01-05 06:25,391.00,-17
1578201984,2020-01-05 06:26,391.00,-16
1578202044,2020-01-05 06:27,391.00,-15
1578202104,2020-01-05 06:28,390.00,-14
1578202164,2020-01-05 06:29,390.00,-17
1578202225,2020-01-05 06:30,392.00,-14
1578202285,2020-01-05 06:31,390.00,-15
1578202345,2020-01-05 06:32,389.00,-16
1578202406,2020-01-05 06:33,393.00,-15
1578202466,2020-01-05 06:34,391.00,-16
1578202526,2020-01-05 06:35,391.00,-14
1578202586,2020-01-05 06:36,391.00,-15
1578202647,2020-01-05 06:37,391.00,-17
1578202707,2020-01-05 06:38,390.00,-17
1578202767,2020-01-05 06:39,392.00,-16
1578202828,2020-01-05 06:40,392.00,-15
1578202888,2020-01-05 06:41,391.00,-16
1578202948,2020-01-05 06:42,392.00,-17
1578203008,2020-01-05 06:43,392.00,-15
1578203069,2020-01-05 06:44,392.00,-15
1578203129,2020-01-05 06:45,391.00,-15
1578203189,2020-01-05 06:46,390.00,-16
1578203249,2020-01-05 06:47,393.00,-16
1578203310,2020-01-05 06:48,391.00,-15
1578203370,2020-01-05 06:49,390.00,-16
1578203430,2020-01-05 06:50,390.00,-16
1578203491,2020-01-05 06:51,390.00,-16
1578203551,2020-01-05 06:52,391.00,-15
1578203611,2020-01-05 06:53,390.00,-17
1578203671,2020-01-05 06:54,388.00,-16
1578203732,2020-01-05 06:55,391.00,-16
1578203792,2020-01-05 06:56,389.00,-15
1578203852,2020-01-05 06:57,390.00,-16
1578203913,2020-01-05 06:58,390.00,-15
1578203973,2020-01-05 06:59,391.00,-13
1578204033,2020-01-05 07:00,392.00,-15
1578204093,2020-01-05 07:01,391.00,-16
1578204154,2020-01-05 07:02,391.00,-15
1578204214,2020-01-05 07:03,391.00,-16
1578204274,2020-01-05 07:04,390.00,-14
1578204334,2020-01-05 07:05,392.00,-14
1578204395,2020-01-05 07:06,392.00,-16
1578204455,2020-01-05 07:07,392.00,-14
1578204515,2020-01-05 07:08,391.00,-15
1578204576,2020-01-05 07:09,390.00,-16
1578204636,2020-01-05 07:10,391.00,-14
1578204696,2020-01-05 07:11,392.00,-16
1578204757,2020-01-05 07:12,392.00,-15
1578204817,2020-01-05 07:13,391.00,-17
1578204877,2020-01-05 07:14,392.00,-15
1578204937,2020-01-05 07:15,392.00,-16
1578204998,2020-01-05 07:16,390.00,-16
1578205058,2020-01-05 07:17,390.00,-15
1578205118,2020-01-05 07:18,391.00,-15
1578205179,2020-01-05 07:19,391.00,-16
1578205239,2020-01-05 07:20,392.00,-16
1578205299,2020-01-05 07:21,390.00,-17
1578205359,2020-01-05 07:22,390.00,-14
1578205420,2020-01-05 07:23,392.00,-16
1578205480,2020-01-05 07:24,391.00,-16
1578205540,2020-01-05 07:25,393.00,-16
1578205601,2020-01-05 07:26,390.00,-15
1578205661,2020-01-05 07:27,392.00,-15
1578205721,2020-01-05 07:28,390.00,-16
1578205781,2020-01-05 07:29,391.00,-16
1578205841,2020-01-05 07:30,390.00,-16
1578205901,2020-01-05 07:31,393.00,-16
1578205961,2020-01-05 07:32,392.00,-14
1578206021,2020-01-05 07:33,392.00,-16
1578206081,2020-01-05 07:34,392.00,-16
1578206141,2020-01-05 07:35,391.00,-16
1578206202,2020-01-05 07:36,391.00,-17
1578206262,2020-01-05 07:37,390.00,-17
1578206322,2020-01-05 07:38,391.00,-16
1578206382,2020-01-05 07:39,390.00,-16
1578206442,2020-01-05 07:40,392.00,-17
1578206502,2020-01-05 07:41,392.00,-16
1578206562,2020-01-05 07:42,393.00,-16
1578206622,2020-01-05 07:43,390.00,-16
1578206682,2020-01-05 07:44,391.00,-16
1578206742,2020-01-05 07:45,391.00,-17
1578206803,2020-01-05 07:46,390.00,-16
1578206863,2020-01-05 07:47,392.00,-17
1578206923,2020-01-05 07:48,392.00,-16
1578206983,2020-01-05 07:49,391.00,-16
1578207043,2020-01-05 07:50,392.00,-16
1578207103,2020-01-05 07:51,391.00,-17
1578207163,2020-01-05 07:52,392.00,-15
1578207223,2020-01-05 07:53,392.00,-17
1578207283,2020-01-05 07:54,391.00,-17
1578207344,2020-01-05 07:55,390.00,-17
1578207404,2020-01-05 07:56,393.00,-16
1578207464,2020-01-05 07:57,393.00,-16
1578207524,2020-01-05 07:58,391.00,-17
1578207584,2020-01-05 07:59,392.00,-15
1578207644,2020-01-05 08:00,391.00,-16
1578207704,2020-01-05 08:01,393.00,-14
1578207764,2020-01-05 08:02,392.00,-16
1578207824,2020-01-05 08:03,390.00,-15
1578207884,2020-01-05 08:04,390.00,-17
1578207945,2020-01-05 08:05,392.00,-15
1578208005,2020-01-05 08:06,391.00,-15
1578208065,2020-01-05 08:07,391.00,-16
1578208125,2020-01-05 08:08,390.00,-15
1578208185,2020-01-05 08:09,392.00,-15
1578208245,2020-01-05 08:10,392.00,-17
1578208305,2020-01-05 08:11,392.00,-16
1578208365,2020-01-05 08:12,390.00,-16
1578208425,2020-01-05 08:13,391.00,-16
1578208486,2020-01-05 08:14,389.00,-16
1578208549,2020-01-05 08:15,392.00,-15
1578208609,2020-01-05 08:16,390.00,-16
1578208669,2020-01-05 08:17,391.00,-15
1578208729,2020-01-05 08:18,392.00,-16
1578208790,2020-01-05 08:19,390.00,-16
1578208851,2020-01-05 08:20,391.00,-16
1578208911,2020-01-05 08:21,391.00,-17
1578208972,2020-01-05 08:22,391.00,-15
1578209032,2020-01-05 08:23,389.00,-16
1578209092,2020-01-05 08:24,390.00,-16
1578209153,2020-01-05 08:25,390.00,-17
1578209213,2020-01-05 08:26,392.00,-16
1578209273,2020-01-05 08:27,391.00,-16
1578209334,2020-01-05 08:28,390.00,-17
1578209394,2020-01-05 08:29,393.00,-16
1578209454,2020-01-05 08:30,391.00,-16
1578209514,2020-01-05 08:31,390.00,-16
1578209575,2020-01-05 08:32,390.00,-15
1578209798,2020-01-05 08:36,391.00,-15
1578209858,2020-01-05 08:37,392.00,-16
1578209918,2020-01-05 08:38,392.00,-15
1578209979,2020-01-05 08:39,390.00,-16
1578210039,2020-01-05 08:40,391.00,-16
1578210099,2020-01-05 08:41,391.00,-15
1578210159,2020-01-05 08:42,392.00,-14
1578210220,2020-01-05 08:43,390.00,-16
1578210280,2020-01-05 08:44,392.00,-15
1578210340,2020-01-05 08:45,391.00,-14
1578210401,2020-01-05 08:46,391.00,-15
1578210461,2020-01-05 08:47,391.00,-16
1578210521,2020-01-05 08:48,390.00,-15
1578210581,2020-01-05 08:49,391.00,-17
1578210641,2020-01-05 08:50,390.00,-17
1578210701,2020-01-05 08:51,391.00,-15
1578210761,2020-01-05 08:52,392.00,-16
1578210821,2020-01-05 08:53,392.00,-14
1578210882,2020-01-05 08:54,390.00,-17
1578210942,2020-01-05 08:55,391.00,-15
1578211002,2020-01-05 08:56,390.00,-16
1578211062,2020-01-05 08:57,390.00,-16
1578211122,2020-01-05 08:58,391.00,-14
1578211182,2020-01-05 08:59,388.00,-16
1578211242,2020-01-05 09:00,390.00,-16
1578211302,2020-01-05 09:01,390.00,-15
1578211362,2020-01-05 09:02,390.00,-16
1578211423,2020-01-05 09:03,391.00,-16
1578211483,2020-01-05 09:04,392.00,-16
1578211543,2020-01-05 09:05,390.00,-16
1578211603,2020-01-05 09:06,391.00,-16
1578211663,2020-01-05 09:07,389.00,-17
1578211723,2020-01-05 09:08,391.00,-14
1578211783,2020-01-05 09:09,392.00,-15
1578211843,2020-01-05 09:10,392.00,-15
1578211903,2020-01-05 09:11,389.00,-14
1578211964,2020-01-05 09:12,389.00,-14
1578212024,2020-01-05 09:13,391.00,-15
1578212084,2020-01-05 09:14,391.00,-16
1578212144,2020-01-05 09:15,390.00,-15
1578212204,2020-01-05 09:16,391.00,-16
1578212264,2020-01-05 09:17,392.00,-16
1578212324,2020-01-05 09:18,392.00,-15
1578212384,2020-01-05 09:19,391.00,-16
1578212444,2020-01-05 09:20,388.00,-15
1578212504,2020-01-05 09:21,390.00,-15
1578212565,2020-01-05 09:22,390.00,-14
1578212625,2020-01-05 09:23,391.00,-14
1578212685,2020-01-05 09:24,391.00,-14
1578212745,2020-01-05 09:25,391.00,-14
1578212805,2020-01-05 09:26,389.00,-14
1578212865,2020-01-05 09:27,389.00,-15
1578212925,2020-01-05 09:28,390.00,-14
1578212985,2020-01-05 09:29,391.00,-16
1578213046,2020-01-05 09:30,393.00,-16
1578213106,2020-01-05 09:31,391.00,-16
1578213166,2020-01-05 09:32,391.00,-14
1578213226,2020-01-05 09:33,392.00,-15
1578213287,2020-01-05 09:34,389.00,-17
1578213347,2020-01-05 09:35,389.00,-16
1578213407,2020-01-05 09:36,392.00,-15
1578213467,2020-01-05 09:37,391.00,-16
1578213528,2020-01-05 09:38,392.00,-15
1578213588,2020-01-05 09:39,389.00,-16
1578213648,2020-01-05 09:40,390.00,-15
1578213708,2020-01-05 09:41,391.00,-16
1578213769,2020-01-05 09:42,390.00,-16
1578213829,2020-01-05 09:43,391.00,-15
1578213889,2020-01-05 09:44,391.00,-15
1578213949,2020-01-05 09:45,390.00,-14
1578214010,2020-01-05 09:46,391.00,-16
1578214070,2020-01-05 09:47,390.00,-16
1578214130,2020-01-05 09:48,390.00,-16
1578214191,2020-01-05 09:49,389.00,-14
1578214251,2020-01-05 09:50,390.00,-14
1578214311,2020-01-05 09:51,390.00,-16
1578214372,2020-01-05 09:52,389.00,-14
1578214432,2020-01-05 09:53,390.00,-15
1578214492,2020-01-05 09:54,390.00,-15
1578214553,2020-01-05 09:55,389.00,-16
1578214613,2020-01-05 09:56,391.00,-14
1578214673,2020-01-05 09:57,390.00,-15
1578214734,2020-01-05 09:58,391.00,-16
1578214794,2020-01-05 09:59,391.00,-15
1578214854,2020-01-05 10:00,391.00,-15
1578214915,2020-01-05 10:01,391.00,-14
1578214975,2020-01-05 10:02,390.00,-16
1578215035,2020-01-05 10:03,391.00,-14
1578215096,2020-01-05 10:04,391.00,-14
1578215156,2020-01-05 10:05,390.00,-14
1578215216,2020-01-05 10:06,391.00,-15
1578215276,2020-01-05 10:07,391.00,-15
1578215336,2020-01-05 10:08,390.00,-15
1578215397,2020-01-05 10:09,389.00,-16
1578215457,2020-01-05 10:10,389.00,-15
1578215517,2020-01-05 10:11,389.00,-14
1578215578,2020-01-05 10:12,388.00,-14
1578215638,2020-01-05 10:13,391.00,-15
1578215698,2020-01-05 10:14,390.00,-14
1578215759,2020-01-05 10:15,391.00,-16
1578215819,2020-01-05 10:16,390.00,-15
1578215879,2020-01-05 10:17,390.00,-14
1578215940,2020-01-05 10:19,392.00,-16
1578216000,2020-01-05 10:20,390.00,-15
1578216060,2020-01-05 10:21,389.00,-17
1578216121,2020-01-05 10:22,391.00,-16
1578216181,2020-01-05 10:23,390.00,-16
1578216241,2020-01-05 10:24,393.00,-16
1578216302,2020-01-05 10:25,391.00,-16